weather.gov     
National Weather Service

Regional Weather Roundup
NWS Homepage
This page is being discontinued on March 12, 2014.
The same data is available at this site. Please update your bookmarks.
Thank you, and we apologize for the inconvenience.
Please send an email to SR-SRH.Webmaster@noaa.gov with any concerns.


Current Version
Previous Version:    01  02  03  04  05  06  07  08  09  10  11  12  13  14  15  16  17  18  19  20  21  22  23  24  25  26  
[Printable]
215
ASUS46 KPQR 260010
RWROR

OREGON REGIONAL WEATHER ROUNDUP
NATIONAL WEATHER SERVICE PORTLAND OR
500 PM PDT SAT OCT 25 2014

NOTE: "FAIR" INDICATES FEW OR NO CLOUDS BELOW 12,000 FEET WITH
NO SIGNIFICANT WEATHER AND/OR OBSTRUCTIONS TO VISIBILITY.

ORZ001>013-260100-
NORTHWEST OREGON


CITY           SKY/WX    TMP DP  RH WIND       PRES   REMARKS
ASTORIA        LGT RAIN  56  53  90 W21G36    29.37R
6HR MIN TEMP:  56; 6HR MAX TEMP:  60; 6HR PCP:  0.22;

NEWPORT        RAIN      54  52  94 W21G30    29.71R
PORTLAND       CLOUDY    60  54  80 S18G30    29.43R
6HR MIN TEMP:  58; 6HR MAX TEMP:  66; 6HR PCP: TRACE;

VANCOUVER WA   CLOUDY    60  52  74 S15G31    29.43R
6HR MIN TEMP:  58; 6HR MAX TEMP:  65; 6HR PCP:  0.04;

SCAPPOOSE      CLOUDY    59  54  83 S12G33    29.40R
6HR MIN TEMP:  54; 6HR MAX TEMP:  63; 6HR PCP:  0.09;

HILLSBORO      LGT RAIN  57  55  93 S16G31    29.41R
6HR MIN TEMP:  55; 6HR MAX TEMP:  63; 6HR PCP:  0.10;

AURORA         CLOUDY    58  54  86 S26G40    29.49
6HR MIN TEMP:  55; 6HR MAX TEMP:  66; 6HR PCP:  0.05;

MCMINNVILLE    LGT RAIN  58  54  86 SW25G33   29.51R
6HR MIN TEMP:  54; 6HR MAX TEMP:  64; 6HR PCP:  0.08;

SALEM          CLOUDY    58  53  84 S18G35    29.56R
6HR MIN TEMP:  55; 6HR MAX TEMP:  65; 6HR PCP:  0.07;

CORVALLIS      CLOUDY    57  52  82 SW22G29   29.66R
EUGENE         LGT RAIN  56  51  84 SW25G32   29.72R
6HR MIN TEMP:  55; 6HR MAX TEMP:  65; 6HR PCP:  0.10;

$$

ORZ021-028-260100-
SOUTHWEST OREGON


CITY           SKY/WX    TMP DP  RH WIND       PRES   REMARKS
NORTH BEND     CLOUDY    57  57 100 W22       29.84R
6HR MIN TEMP:  55; 6HR MAX TEMP:  63; 6HR PCP:  0.05;

BROOKINGS      CLOUDY    57  55  93 VRB6      29.95R FOG
ROSEBURG       LGT RAIN  57  50  77 SW10      29.83R
6HR MIN TEMP:  57; 6HR MAX TEMP:  63; 6HR PCP:  0.14;

SEXTON SUMMIT  FOG       44  44 100 SW10G23   29.86R VSB 1/4
6HR MIN TEMP:  43; 6HR MAX TEMP:  47; 6HR PCP:  0.41;

MEDFORD        CLOUDY    59  47  64 SW9       29.87R
6HR MIN TEMP:  56; 6HR MAX TEMP:  67; 6HR PCP:  0.12;

$$

ORZ009-041-260100-
COLUMBIA GORGE


CITY           SKY/WX    TMP DP  RH WIND       PRES   REMARKS
TROUTDALE      CLOUDY    60  53  77 S20G28    29.45R
6HR MIN TEMP:  57; 6HR MAX TEMP:  65; 6HR PCP:  0.02;

THE DALLES     CLOUDY    58  50  75 E8        29.48F
6HR MIN TEMP:  54; 6HR MAX TEMP:  60; 6HR PCP:  0.01;

$$

ORZ029>031-042>050-061>064-260100-
EASTERN OREGON


CITY           SKY/WX    TMP DP  RH WIND       PRES   REMARKS
REDMOND        MOCLDY    55  39  54 SW20G30   29.63R
6HR MIN TEMP:  55; 6HR MAX TEMP:  66;

BEND           MOCLDY    50  41  71 SW32G41   29.63F
KLAMATH FALLS  CLOUDY    47  41  80 W10       29.88R
6HR MIN TEMP:  47; 6HR MAX TEMP:  58; 6HR PCP:  0.05;

LAKEVIEW       CLOUDY    46  37  71 SW23G29   29.89R
HERMISTON      MOCLDY    61  51  70 NW7       29.49R
6HR MIN TEMP:  52; 6HR MAX TEMP:  63;

PENDLETON      MOCLDY    73  35  25 S28G38    29.50R
6HR MIN TEMP:  48; 6HR MAX TEMP:  76;

JOHN DAY       MOCLDY    62  34  35 S22G32    29.70S
MEACHAM        CLOUDY    63  31  30 CALM      29.63S
6HR MIN TEMP:  61; 6HR MAX TEMP:  70; 6HR PCP: TRACE;

LA GRANDE      MOCLDY    66  32  28 S21G29    29.62R
6HR MIN TEMP:  63; 6HR MAX TEMP:  72;

BAKER CITY     PTCLDY    62  30  29 S28G37    29.69
6HR MIN TEMP:  50; 6HR MAX TEMP:  69; 6HR PCP: TRACE;

BURNS          MOCLDY    59  32  36 S29G37    29.77F
6HR MIN TEMP:  56; 6HR MAX TEMP:  65;

ROME             N/A     65  26  23 SW28G41   29.82F
6HR MIN TEMP:  57; 6HR MAX TEMP:  74;

ONTARIO        MOCLDY    57  48  72 NW5       29.76F
6HR MIN TEMP:  46; 6HR MAX TEMP:  59;

$$




U.S. Dept. of Commerce
NOAA National Weather Service
1325 East West Highway
Silver Spring, MD 20910
E-mail: w-nws.webmaster@noaa.gov
Page last modified: May 16, 2007
NATIONAL WEATHER SERVICE: for Safety, for Work, for Fun - FOR LIFE